Location: ShareBrained
(45.5589°N, 122.6491°W)
Time: 01:16:51
(UTC-08:00)

NOAA 19 - Pass Details

Date: 21 September 2023
Orbit: 839 x 860 km, 99.1° (Epoch: 08 December)

Event Time Altitude Azimuth Distance (km) Brightness Sun altitude
Exits shadow 20:26:07 19° 118° (ESE) 1,894 6.4 -14.0°
Maximum altitude 20:29:19 36° 65° (ENE) 1,331 5.9 -14.5°
Drops below altitude 10° 20:34:16 10° 1° (N) 2,489 7.8 -15.3°
Sets 20:36:49 0° 353° (N) 3,433 8.7 -15.8°
